Scout Lake Weather Center

Moon Phase Calendar



Scout Lake Water Level
Online Cameras

 


      

Current Conditions in Kamas
5/5/2021 10:28:07 PM

43°F
Feels Like 39
Clear
Humidity
39%
Pressure
30.06"
Wind
6 mph (ESE)
Dew Point
21°F
UV Index
0/10 (Low)
Visibility
6 mi

Hourly Forecast

Date & Time Wed, May 5
10:00 PM
Wed, May 5
11:00 PM
Thu, May 6
12:00 AM
Thu, May 6
1:00 AM
Thu, May 6
2:00 AM
Thu, May 6
3:00 AM
Thu, May 6
4:00 AM
Thu, May 6
5:00 AM
Thu, May 6
6:00 AM
Thu, May 6
7:00 AM
Thu, May 6
8:00 AM
Thu, May 6
9:00 AM
Thu, May 6
10:00 AM
Thu, May 6
11:00 AM
Thu, May 6
12:00 PM
Thu, May 6
1:00 PM
Thu, May 6
2:00 PM
Thu, May 6
3:00 PM
Thu, May 6
4:00 PM
Thu, May 6
5:00 PM
Thu, May 6
6:00 PM
Thu, May 6
7:00 PM
Thu, May 6
8:00 PM
Thu, May 6
9:00 PM
Thu, May 6
10:00 PM
Thu, May 6
11:00 PM
Fri, May 7
12:00 AM
Fri, May 7
1:00 AM
Fri, May 7
2:00 AM
Fri, May 7
3:00 AM
Fri, May 7
4:00 AM
Fri, May 7
5:00 AM
Fri, May 7
6:00 AM
Fri, May 7
7:00 AM
Fri, May 7
8:00 AM
Fri, May 7
9:00 AM
Fri, May 7
10:00 AM
Fri, May 7
11:00 AM
Fri, May 7
12:00 PM
Fri, May 7
1:00 PM
Fri, May 7
2:00 PM
Fri, May 7
3:00 PM
Fri, May 7
4:00 PM
Fri, May 7
5:00 PM
Fri, May 7
6:00 PM
Fri, May 7
7:00 PM
Fri, May 7
8:00 PM
Fri, May 7
9:00 PM
Condition
Clear

Clear

Clear

Clear

Clear

Clear

Clear

Clear

Clear

Clear

Clear

Clear

Clear

Clear

Clear

Clear

Clear

Clear

Clear

Clouds

Clouds

Clouds

Clouds

Clouds

Clouds

Clouds

Clouds

Clouds

Clouds

Clouds

Clouds

Clouds

Clouds

Clouds

Clouds

Clouds

Clouds

Clouds

Clouds

Clouds

Clouds

Clouds

Clouds

Clouds

Clouds

Clouds

Clouds

Clouds
Temperature 43°F40°F37°F34°F32°F29°F29°F29°F29°F32°F40°F46°F50°F52°F53°F54°F55°F55°F55°F54°F52°F49°F42°F38°F38°F37°F37°F37°F37°F37°F37°F37°F36°F37°F44°F48°F50°F52°F53°F53°F53°F53°F53°F51°F50°F47°F42°F36°F
Feels Like 41°F37°F33°F30°F26°F23°F23°F24°F24°F27°F37°F45°F49°F48°F49°F50°F51°F51°F51°F50°F49°F47°F42°F34°F33°F32°F32°F32°F32°F32°F32°F32°F32°F33°F41°F44°F46°F48°F49°F49°F49°F49°F49°F48°F44°F40°F35°F31°F
Cloudiness 5%5%5%2%1%0%0%0%0%0%0%0%0%0%0%1%1%1%3%12%16%25%16%14%31%32%30%33%20%18%31%45%54%67%44%36%32%31%32%44%47%42%54%49%55%49%74%59%
Visibility 6 mi6 mi6 mi6 mi6 mi6 mi6 mi6 mi6 mi6 mi6 mi6 mi6 mi6 mi6 mi6 mi6 mi6 mi6 mi6 mi6 mi6 mi6 mi6 mi6 mi6 mi6 mi6 mi6 mi6 mi6 mi6 mi6 mi6 mi6 mi6 mi6 mi6 mi6 mi6 mi6 mi6 mi6 mi6 mi6 mi6 mi6 mi6 mi
Precipitation 0%0%0%0%0%0%0%0%0%0%0%0%0%0%0%0%0%0%0%0%0%0%0%0%0%0%0%0%0%0%0%0%0%0%0%0%0%0%0%0%0%2%2%0%0%0%2%0%
Humidity 39%42%44%45%46%45%42%39%34%30%27%22%24%25%25%25%25%24%23%23%28%37%45%47%46%49%51%49%48%48%48%47%48%48%42%31%30%30%30%30%29%29%28%30%36%37%45%74%
Dew Point 21°F20°F19°F17°F15°F12°F11°F9°F6°F6°F10°F11°F16°F19°F20°F21°F21°F21°F19°F19°F22°F25°F24°F21°F21°F21°F22°F22°F21°F21°F20°F20°F20°F21°F24°F21°F22°F23°F24°F24°F24°F23°F22°F23°F25°F24°F24°F29°F
Pressure 30.06"30.12"30.15"30.21"30.24"30.3"30.3"30.3"30.27"30.27"30.21"30.15"30.12"30.12"30.09"30.06"30.06"30.03"30"30"30"30"30.06"30.12"30.12"30.12"30.09"30.06"30.03"30.03"30.03"30.03"30"29.97"29.94"29.88"29.85"29.83"29.83"29.8"29.77"29.77"29.71"29.71"29.71"29.68"29.71"29.8"
Wind Speed 3.4 mph4.3 mph4.8 mph4.9 mph5 mph5.1 mph5.2 mph5.1 mph4.9 mph5 mph4.2 mph3.3 mph3.6 mph5 mph6.7 mph7.8 mph8.5 mph9.4 mph9.4 mph9.8 mph9.5 mph5.5 mph2.8 mph5.2 mph6.7 mph6.9 mph6.3 mph6.1 mph6.3 mph5.8 mph5.7 mph5.7 mph5.6 mph5 mph4.8 mph8.5 mph11 mph13.4 mph15.5 mph16.6 mph16.7 mph16.9 mph17.2 mph18.2 mph16.7 mph16.9 mph13.7 mph5.3 mph
Wind
Direction
113°
ESE
127°
SE
126°
SE
125°
SE
126°
SE
128°
SE
134°
SE
131°
SE
130°
SE
134°
SE
140°
SE
169°
S
211°
SSW
231°
SW
231°
SW
227°
SW
222°
SW
220°
SW
225°
SW
235°
SW
244°
WSW
244°
WSW
184°
S
136°
SE
132°
SE
131°
SE
128°
SE
134°
SE
148°
SSE
144°
SE
147°
SSE
148°
SSE
148°
SSE
155°
SSE
181°
S
214°
SW
220°
SW
223°
SW
225°
SW
228°
SW
233°
SW
234°
SW
241°
WSW
239°
WSW
231°
SW
229°
SW
230°
SW
247°
WSW

Daily Forecast

Date High Low Precip. Humidity
Today
May 5

Snow
45 °F
23 °F
28%
26%
Thursday
May 6

Clear
55 °F
29 °F
0%
25%
Friday
May 7

Clouds
53 °F
36 °F
2%
30%
Saturday
May 8

Snow
32 °F
18 °F
77%
60%
Sunday
May 9

Clouds
34 °F
15 °F
8%
29%
Monday
May 10

Snow
32 °F
18 °F
69%
45%
Tuesday
May 11

Snow
37 °F
17 °F
76%
60%
Wednesday
May 12

Clouds
48 °F
23 °F
0%
41%
Thursday
May 13

Clouds
54 °F
32 °F
0%
28%
Friday
May 14

Snow
45 °F
22 °F
20%
34%
Saturday
May 15

Clear
41 °F
19 °F
0%
29%
Sunday
May 16

Clear
50 °F
24 °F
0%
15%
Monday
May 17

Rain
55 °F
32 °F
20%
21%
Tuesday
May 18

Snow
43 °F
28 °F
57%
39%
Wednesday
May 19

Clear
54 °F
27 °F
20%
28%
Thursday
May 20

Snow
34 °F
23 °F
84%
64%

Temperature 8-14 Day Outlook



Precipitation 8-14 Day Outlook




Quick Links
Scout Lake News
Scout Lake Photos
Scout Lake Videos




About Us
Contact Us
Site Map
Search Site
Advertise With Us
   
Scout.LakesOnline.com
THE SCOUT LAKE WEBSITE

Copyright 2021, Lakes Online
Privacy    |    Legal